sat.trackr.live / text

‹ back to catalog

STARLINK-5396

NORAD 54867 · 2022-177AZ

PAYLOAD ACTIVE UNKNOWN

§ Identity

Operator
Country
US
Launch date
2022-12-28
Launch site
AFETR
Launch vehicle
Mass (kg)
RCS (m²)

Purposes: comms

External: N2YO · Heavens-Above · Gunter

§ Orbital elements

Epoch: 2026-09-20T06:05:24.187488Z

Period
94.27 min
Inclination
43.0021°
Eccentricity
0.0000917
Mean motion
15.27580481 rev/d
Perigee alt
482.4 km
Apogee alt
483.7 km
Semi-major
6,861.2 km
B*
4.4903e-5
RAAN
103.0374°
Arg perigee
253.2934°
Mean anomaly
106.7817°
Rev number
20,684

§ Raw data

STARLINK-53961 54867U 22177AZ  26263.25375217  .00000974  00000+0  44903-4 0  99932 54867  43.0021 103.0374 0000917 253.2934 106.7817 15.27580481206846

JSON: /api/v1/satellites/54867 · /tle

For live sub-satellite position, see the globe view (requires WebGL).

§ Visibility from observer

Set your observer location to see the next 7 days of passes ≥ 10°. The values pass through the URL so the page stays shareable.

No JS? Fill the form by hand. The geolocation button needs JavaScript.